Find Starlink 31065

NORAD ID: 58627 Int'l Des: 2023-203 Owner: SPXS Country: US Constellation: starlink operational
LEOCIRCULAR

現在のビュー

3D地球を読み込み中...

About Starlink 31065

Starlink 31065 (NORAD 58627) is a starlink constellation satellite (v2 mini) launched Dec 23, 2023 by SPXS of US. It operates in LEO, CIRCULAR orbit with a mass of 730.00 kg.

次回通過

Passes for default location (London). Set your location on the main map for personalized predictions.

高度履歴

Loading altitude history...

軌道要素

1 58627U 23203K 26235.61868496 -.00000125 00000-0 50037-5 0 9993
2 58627 43.0047 204.1458 0001776 264.8992 95.1657 15.27570427149099
Epoch: Aug 23, 2026 • Age: 14 hours

現在のステータス

高度 483.1 km
遠地点 / 近地点 N/A
速度 7.63 km/s
衛星直下点 20.78°N, 175.54°E
打ち上げ日 Dec 23, 2023
運用期間 2.6 years
タイプ internet

技術仕様

分類 Payload
質量 730.00 kg
乾燥質量 700.00 kg
総質量 730.00 kg
長さ 0.30 m
直径 4.10 m
スパン 29.00 m
形状 Box + pan
製造者 SPXS
バスタイプ Starlink V2M
フェーズステータス In Orbit
所有者/国 SPXS/US

Most Searched